www.pogodaiklimat.ru

Погода и климат >> Архив погоды >> Мексика >> Altar Son


ПОГОДА в Altar Son

  • Прогноз погоды в Altar Son
  • Монитор погоды в Altar Son
  • Климат города

АРХИВ ПОГОДЫ в Altar Son

Время (UTC), дата Ветер
(напр.,м/с)
 
Видим.   Явления Облачность Т
(С)
Тd
(С)
f
(%)
Тe
(С)
Тes
(С)
Комфортность P
(гПа)
Po
(гПа)
Тmin
(С)
Tmax
(С)
R
(мм)
R24
(мм)
S
(см)
18 13.08 Ю 1 30 км ясно +32.4 +17.0 40 +36 +57 опасность
солнечного
удара
1010.0 966.1 +23.0 +33.0
21 13.08 Ю 1 30 км 4/0 2000 м
[Ac trans]
+35.0 +20.4 43 +42 +57 опасность
перегрева
1009.0 965.5
00 14.08 ЮЗ 2 30 км 5/0 2000 м
[Ac trans]
+37.0 +17.0 31 +40 +43 очень
душно
1008.0 965.1 +23.0 +37.5
03 14.08 С 2 20 км ясно +34.0 +19.1 42 +39 +39 очень
душно
1007.0 964.6
12 14.08 С 1 20 км ясно +25.2 +20.1 73 +31 +31 очень
душно
1007.8 963.4 +25.0 +37.5
15 14.08 СВ 1 30 км ясно +26.8 +22.1 75 +35 +40 очень
душно
1009.2 964.7
18 14.08 Ю 1 30 км ясно +34.4 +20.0 43 +40 +61 опасность
солнечного
удара
1007.9 964.0 +24.6 +34.5
21 14.08 Ю 1 30 км 5/0 2000 м
[Ac trans]
+37.8 +20.0 36 +44 +58 опасность
перегрева
1005.3 961.8
00 15.08 ЮЗ 1 30 км 5/0 2000 м
[Ac trans]
+39.0 +18.2 30 +43 +46 опасность
перегрева
1002.7 959.5 +24.6 +39.5
03 15.08 ЮЗ 1 20 км ясно +34.6 +14.6 30 +36 +36 душно 1003.5 960.3
15 15.08 СВ 1 30 км ясно +26.0 +18.0 61 +30 +36 душно 1007.2 962.7
18 15.08 ЮВ 1 30 км ясно +34.6 +20.0 42 +40 +61 опасность
солнечного
удара
1006.6 962.7 +24.0 +34.8
21 15.08 З 3 30 км ясно +38.6 +15.1 25 +40 +54 опасность
солнечного
удара
1004.7 961.2
00 16.08 З 3 30 км ясно +38.0 +6.2 14 +35 +39 очень
жарко
1004.2 960.9 +24.0 +39.5
03 16.08 З 1 20 км ясно +33.0 +6.6 19 +31 +31 жарко 1004.5 961.2
12 16.08 СВ 1 20 км ясно +21.8 +10.8 50 +24 +24 комфорт 1008.5 963.5 +21.6 +39.5
15 16.08 СВ 1 30 км ясно +24.0 +11.1 44 +25 +30 комфорт 1009.6 964.6
18 16.08 ЮВ 1 30 км ясно +35.2 +15.5 31 +37 +58 опасность
солнечного
удара
1009.7 964.7 +21.4 +35.4
21 16.08 ЮЗ 2 30 км ясно +37.4 +13.2 24 +38 +55 опасность
солнечного
удара
1007.8 964.0
00 17.08 З 3 30 км ясно +38.8 +12.4 21 +38 +42 очень
жарко
1005.8 962.3 +21.4 +39.2
03 17.08 ЮЗ 2 10 км ясно +33.8 +9.1 22 +33 +33 жарко 1005.4 962.5
12 17.08 СВ 1 20 км ясно +22.4 +12.0 52 +25 +25 комфорт 1009.3 964.4 +22.0 +39.2
15 17.08 В 1 30 км ясно +24.2 +11.8 46 +26 +31 жарко 1009.8 964.9
18 17.08 Ю 1 30 км ясно +35.8 +11.6 23 +35 +56 опасность
солнечного
удара
1010.4 966.2 +21.2 +36.0
21 17.08 З 2 30 км ясно +40.0 +10.0 17 +39 +56 опасность
солнечного
удара
1009.0 965.3
00 18.08 З 2 30 км ясно +39.4 +8.8 16 +38 +41 очень
жарко
1007.1 963.7 +21.2 +40.0
03 18.08 З 2 10 км ясно +35.0 +9.1 21 +34 +34 очень
жарко
1007.1 963.8
15 18.08 В 1 30 км ясно +21.8 +10.8 50 +24 +29 комфорт 1012.0 966.4
18 18.08 ЮВ 1 30 км ясно +32.4 +17.0 40 +36 +56 опасность
солнечного
удара
1011.0 966.0 +20.0 +33.0
21 18.08 Ю 1 30 км ясно +38.0 +15.6 27 +35 +55 опасность
солнечного
удара
1010.0 965.2
00 19.08 ЮЗ 1 30 км ясно +40.5 +13.8 21 +41 +45 опасность
перегрева
1009.0 964.7 +20.0 +41.0
03 19.08 З 1 20 км ясно +34.0 +19.1 42 +39 +39 очень
душно
1008.0 964.2
15 19.08 СВ 1 30 км ясно +26.0 +2.1 21 +25 +29 комфорт 1010.0 965.3
18 19.08 В 1 30 км 8/0 2000 м
[Ac trans]
+32.4 +17.0 40 +36 +46 очень
душно
1009.0 965.0 +25.0 +33.0
21 19.08 ЮВ 1 30 км 8/0 2000 м
[Ac trans]
+35.0 +19.9 41 +34 +44 очень
жарко
1008.0 964.3
00 20.08 Ю 1 30 км 8/0 2000 м
[Ac trans]
+39.0 +18.2 30 +43 +45 опасность
перегрева
1007.0 964.0 +25.0 +39.5
03 20.08 С 1 20 км 4/0 2000 м
[Ac trans]
+34.0 +19.1 42 +39 +39 очень
душно
1006.0 963.2

 

Местоположение метеостанции Altar Son (Мексика): широта 30.71 долгота -111.84 высота над уровнем моря 397 м.

В архиве по умолчанию представлена погода в Altar Son за последнюю неделю. Архивные данные за месяц целиком и за предыдущие месяцы, начиная с января 2011 года, Вы можете получить, выбрав интересующий диапазон дат из раскрывающегося списка и нажав кнопку "Ввод!".

Внимание! Время в таблицах - всемирное. Для получения местного времени необходимо прибавить поправку, которая в Altar Son равна -8 ч.

Смотрите также архив погоды в соседних городах и на ближайших метеорологических станциях:

Погода в Puerto Penasco (Мексика) (176 км)
Погода в Hermosillo (Мексика) (196 км)
Погода в Hermosillo la Magna (Мексика) (201 км)
Погода в Pilares de Nacoz (Мексика) (210 км)
Погода в San Felipe (Мексика) (285 км)
Погода в Guaymas Upper Air Site (Мексика) (324 км)
Погода в Empalme (Мексика) (326 км)
Погода в Ejido Nuevo Leon (Мексика) (362 км)
Погода в Nueva Casas Grandes (Мексика) (379 км)
Погода в Santa Rosalia (Мексика) (384 км)

Пояснения к столбцам:

Ветер - указаны скорость ветра в м/с - средняя за 10 мин, порывы в срок и между сроками (в фигурных скобках) и направление, откуда дует ветер: С - северный, СВ - северо-восточный, В - восточный, ЮВ - юго-восточный, Ю - южный, ЮЗ - юго-западный, З - западный, СЗ - северо-западный.
Видимость - горизонтальная дальность видимости в метрах или километрах. При видимости от 1 до 10 км при отсутствии осадков обычно наблюдается дымка, при ухудшении видимости до 1 км и менее - туман. В сухую погоду видимость может ухудшаться дымом, пылью или мглою.
Явления - указаны атмосферные явления, наблюдавшиеся в срок или в последний час перед сроком; фигурными скобками обозначены явления, наблюдавшиеся между сроками (за 1-3 часа до срока); квадратными скобками обозначены град или гололедные отложения с указанием их диаметра в мм.
Облачность - указаны через наклонную черту общая и нижняя облачность в баллах и высота нижней границы облаков в метрах; квадратными скобками обозначены формы облаков: Ci - перистые, Cs - перисто-слоистые, Cc - перисто-кучевые, Ac - высококучевые, As - высокослоистые, Sc - слоисто-кучевые, Ns - слоисто-дождевые, Cu - кучевые, Cb - кучево-дождевые. Подробнее классификацию облаков см. в Атласе облаков (PDF).
T - Температура воздуха - температура, измеренная на высоте 2 м над землей.
Td - Температура точки росы - температура, при понижении до которой содержащийся в воздухе водяной пар достигнет насыщения.
f - Относительная влажность воздуха - влажноcть воздуха, измеренная на высоте 2 м над землей.
Te - Эффективная температура - температура, которую ощущает одетый по сезону человек в тени. Характеристика душности погоды. При расчете учитывается влияние влажности воздуха и скорости ветра на теплоощущения человека.
Tes - Эффективная температура на солнце - температура, которую ощущает человек, с поправкой на солнечный нагрев. Характеристика знойности погоды. Зависит от высоты солнца над горизонтом, облачности и скорости ветра. Ночью, в пасмурную погоду, а также при ветре 12 м/с и более поправка равна нулю.
P - Атмосферное давление - приведенное к уровню моря атмосферное давление.
Po - Атмосферное давление - измеренное на уровне метеостанции атмосферное давление.
Tmin - Минимальная температура - минимум температуры воздуха на высоте 2 м над землей.
Tmax - Максимальная температура - максимум температуры воздуха на высоте 2 м над землей.
R - Количество осадков - Количество выпавших осадков за период времени, мм. При наведении курсора мыши на число - период времени, за который выпало указанное количество осадков.
R24 - Количество осадков - Количество выпавших осадков за 24 часа, мм.
S - Снежный покров - Высота снежного покрова, см. При наведении курсора мыши на число - состояние снежного покрова и степень покрытия местности в баллах.